When you browse on this site, cookies collect data to enhance your experience and personalize the content and advertising you see.
Visit our Privacy Policy to learn more. By continuing to use the site, you agree to this use of cookies and data.
  • In Schweiz
  • Länderverzeichnis
  • Für 7 Tage
  • Wassertemperatur
  • Satellitenkarten
  • Wetterkarte
  • Widgets
  • user-avatar
    Anmelden

    Stündliche Wetter Zaranj

    Heute, 17 Juni, Montag

    Zeit Temperatur Niederschläge Wind Luftdruck Luftfeuchtigkeit
    00:00 +36°C° 0 mm 10 m/S 712 mmHg 14%
    01:00 +34°C° 0 mm 10 m/S 711 mmHg 16%
    02:00 +33°C° 0 mm 10 m/S 711 mmHg 17%
    03:00 +33°C° 0 mm 10 m/S 712 mmHg 18%
    04:00 +32°C° 0 mm 11 m/S 712 mmHg 19%
    05:00 +33°C° 0 mm 11 m/S 712 mmHg 17%
    06:00 +34°C° 0 mm 12 m/S 713 mmHg 15%
    07:00 +36°C° 0 mm 12 m/S 713 mmHg 13%
    08:00 +38°C° 0 mm 12 m/S 713 mmHg 12%
    09:00 +41°C° 0 mm 12 m/S 713 mmHg 10%
    10:00 +43°C° 0 mm 12 m/S 713 mmHg 9%
    11:00 +44°C° 0 mm 12 m/S 713 mmHg 8%
    12:00 +46°C° 0 mm 12 m/S 712 mmHg 8%
    13:00 +47°C° 0 mm 12 m/S 712 mmHg 7%
    14:00 +47°C° 0 mm 12 m/S 712 mmHg 7%
    15:00 +47°C° 0 mm 12 m/S 711 mmHg 7%
    16:00 +47°C° 0 mm 11 m/S 711 mmHg 7%
    17:00 +45°C° 0 mm 10 m/S 711 mmHg 8%
    18:00 +43°C° 0 mm 9 m/S 711 mmHg 9%
    19:00 +41°C° 0 mm 7 m/S 711 mmHg 10%
    20:00 +39°C° 0 mm 7 m/S 711 mmHg 10%
    21:00 +38°C° 0 mm 6 m/S 711 mmHg 11%
    22:00 +35°C° 0 mm 6 m/S 711 mmHg 11%
    23:00 +34°C° 0 mm 6 m/S 711 mmHg 13%

    Morgen, 18 Juni, Dienstag

    Zeit Temperatur Niederschläge Wind Luftdruck Luftfeuchtigkeit
    00:00 +33°C° 0 mm 6 m/S 711 mmHg 15%
    01:00 +32°C° 0 mm 6 m/S 711 mmHg 17%
    02:00 +32°C° 0 mm 6 m/S 711 mmHg 17%
    03:00 +32°C° 0 mm 6 m/S 711 mmHg 18%
    04:00 +30°C° 0 mm 6 m/S 711 mmHg 19%
    05:00 +33°C° 0 mm 7 m/S 711 mmHg 18%
    06:00 +34°C° 0 mm 8 m/S 711 mmHg 16%
    07:00 +35°C° 0 mm 9 m/S 712 mmHg 14%
    08:00 +38°C° 0 mm 10 m/S 712 mmHg 12%
    09:00 +40°C° 0 mm 10 m/S 712 mmHg 10%
    10:00 +43°C° 0 mm 11 m/S 712 mmHg 9%
    11:00 +44°C° 0 mm 11 m/S 712 mmHg 8%
    12:00 +47°C° 0 mm 12 m/S 711 mmHg 7%
    13:00 +48°C° 0 mm 13 m/S 711 mmHg 6%
    14:00 +48°C° 0 mm 13 m/S 710 mmHg 6%
    15:00 +48°C° 0 mm 13 m/S 710 mmHg 6%
    16:00 +47°C° 0 mm 13 m/S 709 mmHg 6%
    17:00 +46°C° 0 mm 12 m/S 709 mmHg 7%
    18:00 +43°C° 0 mm 11 m/S 709 mmHg 8%
    19:00 +40°C° 0 mm 10 m/S 709 mmHg 9%
    20:00 +39°C° 0 mm 9 m/S 709 mmHg 10%
    21:00 +38°C° 0 mm 9 m/S 709 mmHg 11%
    22:00 +37°C° 0 mm 9 m/S 710 mmHg 12%
    23:00 +35°C° 0 mm 8 m/S 709 mmHg 14%

    übermorgen, 19 Juni, Mittwoch

    Zeit Temperatur Niederschläge Wind Luftdruck Luftfeuchtigkeit
    00:00 +34°C° 0 mm 8 m/S 709 mmHg 16%
    01:00 +32°C° 0 mm 7 m/S 709 mmHg 17%
    02:00 +32°C° 0 mm 7 m/S 709 mmHg 18%
    03:00 +32°C° 0 mm 8 m/S 709 mmHg 19%
    04:00 +31°C° 0 mm 9 m/S 709 mmHg 19%
    05:00 +33°C° 0 mm 10 m/S 709 mmHg 18%
    06:00 +34°C° 0 mm 11 m/S 710 mmHg 16%
    07:00 +36°C° 0 mm 13 m/S 710 mmHg 14%
    08:00 +38°C° 0 mm 13 m/S 710 mmHg 11%
    09:00 +41°C° 0 mm 13 m/S 710 mmHg 9%
    10:00 +43°C° 0 mm 13 m/S 710 mmHg 7%
    11:00 +46°C° 0 mm 12 m/S 710 mmHg 7%
    12:00 +47°C° 0 mm 12 m/S 710 mmHg 6%
    13:00 +48°C° 0 mm 12 m/S 709 mmHg 6%
    14:00 +48°C° 0 mm 12 m/S 709 mmHg 6%
    15:00 +48°C° 0 mm 12 m/S 709 mmHg 6%
    16:00 +48°C° 0 mm 12 m/S 709 mmHg 6%
    17:00 +46°C° 0 mm 11 m/S 709 mmHg 8%
    18:00 +44°C° 0 mm 10 m/S 709 mmHg 9%
    19:00 +42°C° 0 mm 9 m/S 709 mmHg 11%
    20:00 +40°C° 0 mm 9 m/S 709 mmHg 12%
    21:00 +38°C° 0 mm 9 m/S 709 mmHg 13%
    22:00 +37°C° 0 mm 9 m/S 709 mmHg 15%
    23:00 +35°C° 0 mm 9 m/S 709 mmHg 16%

    20 Juni, Donnerstag

    Zeit Temperatur Niederschläge Wind Luftdruck Luftfeuchtigkeit
    00:00 +34°C° 0 mm 9 m/S 709 mmHg 17%
    01:00 +33°C° 0 mm 9 m/S 709 mmHg 19%
    02:00 +33°C° 0 mm 9 m/S 709 mmHg 19%
    03:00 +33°C° 0 mm 9 m/S 709 mmHg 20%
    04:00 +32°C° 0 mm 9 m/S 709 mmHg 20%
    05:00 +33°C° 0 mm 10 m/S 710 mmHg 18%
    06:00 +34°C° 0 mm 11 m/S 710 mmHg 17%
    07:00 +37°C° 0 mm 13 m/S 711 mmHg 15%
    08:00 +39°C° 0 mm 13 m/S 711 mmHg 13%
    09:00 +42°C° 0 mm 13 m/S 711 mmHg 11%
    10:00 +45°C° 0 mm 13 m/S 711 mmHg 8%
    11:00 +46°C° 0 mm 12 m/S 711 mmHg 7%
    12:00 +47°C° 0 mm 12 m/S 711 mmHg 6%
    13:00 +48°C° 0 mm 12 m/S 710 mmHg 5%
    14:00 +48°C° 0 mm 11 m/S 710 mmHg 6%
    15:00 +48°C° 0 mm 11 m/S 710 mmHg 6%
    16:00 +48°C° 0 mm 11 m/S 709 mmHg 6%
    17:00 +45°C° 0 mm 10 m/S 709 mmHg 8%
    18:00 +43°C° 0 mm 9 m/S 710 mmHg 10%
    19:00 +40°C° 0 mm 7 m/S 710 mmHg 12%
    20:00 +39°C° 0 mm 7 m/S 710 mmHg 14%
    21:00 +36°C° 0 mm 7 m/S 710 mmHg 15%
    22:00 +35°C° 0 mm 6 m/S 711 mmHg 17%
    23:00 +34°C° 0 mm 6 m/S 711 mmHg 17%

    21 Juni, Freitag

    Zeit Temperatur Niederschläge Wind Luftdruck Luftfeuchtigkeit
    00:00 +34°C° 0 mm 7 m/S 710 mmHg 18%
    01:00 +33°C° 0 mm 7 m/S 710 mmHg 19%
    02:00 +33°C° 0 mm 7 m/S 710 mmHg 18%
    03:00 +32°C° 0 mm 8 m/S 710 mmHg 18%
    04:00 +32°C° 0 mm 8 m/S 710 mmHg 17%
    05:00 +33°C° 0 mm 9 m/S 711 mmHg 15%
    06:00 +36°C° 0 mm 10 m/S 711 mmHg 13%
    07:00 +37°C° 0 mm 11 m/S 712 mmHg 12%
    08:00 +39°C° 0 mm 11 m/S 712 mmHg 10%
    09:00 +42°C° 0 mm 11 m/S 712 mmHg 9%
    10:00 +43°C° 0 mm 11 m/S 712 mmHg 8%
    11:00 +46°C° 0 mm 11 m/S 712 mmHg 7%
    12:00 +47°C° 0 mm 11 m/S 711 mmHg 7%
    13:00 +48°C° 0 mm 11 m/S 711 mmHg 6%
    14:00 +48°C° 0 mm 11 m/S 710 mmHg 6%
    15:00 +48°C° 0 mm 11 m/S 710 mmHg 6%
    16:00 +48°C° 0 mm 11 m/S 709 mmHg 6%
    17:00 +45°C° 0 mm 10 m/S 709 mmHg 7%
    18:00 +43°C° 0 mm 9 m/S 709 mmHg 8%
    19:00 +41°C° 0 mm 8 m/S 709 mmHg 9%
    20:00 +39°C° 0 mm 7 m/S 710 mmHg 10%
    21:00 +38°C° 0 mm 7 m/S 710 mmHg 12%
    22:00 +36°C° 0 mm 6 m/S 710 mmHg 13%
    23:00 +35°C° 0 mm 6 m/S 710 mmHg 14%

    22 Juni, Samstag

    Zeit Temperatur Niederschläge Wind Luftdruck Luftfeuchtigkeit
    00:00 +34°C° 0 mm 6 m/S 710 mmHg 15%
    01:00 +33°C° 0 mm 6 m/S 710 mmHg 16%
    02:00 +33°C° 0 mm 7 m/S 710 mmHg 17%
    03:00 +33°C° 0 mm 8 m/S 710 mmHg 17%
    04:00 +33°C° 0 mm 8 m/S 710 mmHg 17%
    05:00 +34°C° 0 mm 10 m/S 711 mmHg 15%
    06:00 +37°C° 0 mm 12 m/S 711 mmHg 13%
    07:00 +39°C° 0 mm 13 m/S 711 mmHg 11%
    08:00 +41°C° 0 mm 13 m/S 712 mmHg 10%
    09:00 +43°C° 0 mm 14 m/S 712 mmHg 9%
    10:00 +46°C° 0 mm 14 m/S 712 mmHg 7%
    11:00 +47°C° 0 mm 14 m/S 712 mmHg 6%
    12:00 +50°C° 0 mm 14 m/S 711 mmHg 5%
    13:00 +51°C° 0 mm 14 m/S 711 mmHg 5%
    14:00 +51°C° 0 mm 14 m/S 711 mmHg 5%
    15:00 +51°C° 0 mm 14 m/S 710 mmHg 5%
    16:00 +51°C° 0 mm 14 m/S 710 mmHg 5%
    17:00 +48°C° 0 mm 13 m/S 710 mmHg 6%
    18:00 +46°C° 0 mm 13 m/S 710 mmHg 8%
    19:00 +43°C° 0 mm 12 m/S 710 mmHg 9%
    20:00 +42°C° 0 mm 12 m/S 710 mmHg 10%
    21:00 +41°C° 0 mm 12 m/S 711 mmHg 11%
    22:00 +38°C° 0 mm 13 m/S 711 mmHg 13%
    23:00 +37°C° 0 mm 13 m/S 711 mmHg 14%
    Mehr zeigen